Location: Asheville, NC
(35.6000°N, 82.5500°W)
Time: 06:31:14
(UTC-05:00)

Vanguard 2 Rocket - Pass Details

Date: 10 February 2018
Orbit: 555 x 3327 km, 32.9° (Epoch: 24 February)

Event Time Altitude Azimuth Distance (km) Brightness Sun altitude
Rises 10:03:29 0° 279° (W) 6,522 10.8 27.3°
Reaches altitude 10° 10:11:10 10° 259° (W) 4,866 10.4 28.4°
Maximum altitude 10:16:52 14° 234° (SW) 3,972 10.2 29.2°
Drops below altitude 10° 10:21:31 10° 206° (SSW) 3,777 10.4 29.8°
Sets 10:26:05 0° 181° (S) 4,216 11.0 30.4°
